Location: Newark
(52.3500°N, 175.9667°E)
Time: 14:17:02
(UTC+00:00)

ISS - Pass Details

Date: 11 March 2021
Orbit: 418 x 422 km, 51.6° (Epoch: 13 April)

Event Time Altitude Azimuth Distance (km) Brightness Sun altitude
Exits shadow 16:25:35 15° 155° (SSE) 1,223 -1.4 -20.7°
Drops below altitude 10° 16:26:22 10° 147° (SSE) 1,494 -0.9 -20.6°
Sets 16:28:37 0° 136° (SE) 2,355 0.3 -20.3°
